Change the Weather History Date:

Friday, August 30, 2013

  Actual Average Record
Temperature  
Mean Temperature 64 °F -  
Max Temperature 73 °F 73 °F 87 °F (2004)
Min Temperature 55 °F 58 °F 46 °F (2014)
Degree Days  
Heating Degree Days 1    
Growing Degree Days 14 (Base 50)    
Moisture  
Dew Point 62 °F    
Average Humidity 87    
Maximum Humidity 100    
Minimum Humidity 68    
Precipitation  
Precipitation 0.00 in - - ()
Sea Level Pressure  
Sea Level Pressure 29.94 in    
Wind  
Wind Speed 8 mph (West)    
Max Wind Speed 16 mph    
Max Gust Speed 23 mph    
Visibility 10 miles    
Events      
Averages and records for this station are not official NWS values.
T = Trace of Precipitation, MM = Missing Value Source: NWS Daily Summary

Daily Weather History Graph

Daily Weather History Graph

Search for Another Location

Airport or City:

Trip Planner

Search our weather history database for the weather conditions in past years. The results will help you decide how hot, cold, wet, or windy it might be!

Date:

Astronomy

Aug. 30, 2013 Rise Set
Actual Time 6:06 AM EDT 7:18 PM EDT
Civil Twilight 5:37 AM EDT 7:46 PM EDT
Nautical Twilight 5:03 AM EDT 8:21 PM EDT
Astronomical Twilight 4:27 AM EDT 8:56 PM EDT
Moon 12:39 AM EDT (8/30) 3:33 PM EDT (8/30)
Length of Visible Light 14h 09m
Length of Day
13h 12m
Waning Crescent, 29% of the Moon is Illuminated
Aug 30
Waning Crescent
Sep 5
New
Sep 12
First Quarter
Sep 19
Full
Sep 26
Last Quarter

Hourly Weather History & Observations

Time (EDT) Temp. Dew Point Humidity Pressure Visibility Wind Dir Wind Speed Gust Speed Precip Events Conditions
12:15 AM 59.0 °F 55.4 °F 88% 30.02 in 10.0 mi NNE 5.8 mph - N/A   Clear
12:35 AM 59.0 °F 55.4 °F 88% 30.01 in 10.0 mi NNE 4.6 mph - N/A   Clear
12:55 AM 57.2 °F 55.4 °F 94% 30.01 in 10.0 mi North 3.5 mph - N/A   Clear
1:15 AM 57.2 °F 55.4 °F 94% 30.02 in 10.0 mi NNE 4.6 mph - N/A   Clear
1:35 AM 57.2 °F 55.4 °F 94% 30.01 in 10.0 mi NNW 3.5 mph - N/A   Clear
1:55 AM 55.4 °F 55.4 °F 100% 30.00 in 10.0 mi Calm Calm - N/A   Mostly Cloudy
2:15 AM 57.2 °F 57.2 °F 100% 30.01 in 10.0 mi NNW 4.6 mph - N/A   Overcast
2:35 AM 59.0 °F 57.2 °F 94% 30.00 in 10.0 mi NNW 4.6 mph - N/A   Overcast
2:55 AM 59.0 °F 57.2 °F 94% 29.99 in 10.0 mi NNW 3.5 mph - N/A   Overcast
3:15 AM 59.0 °F 57.2 °F 94% 29.99 in 10.0 mi NNW 4.6 mph - N/A   Overcast
3:35 AM 59.0 °F 57.2 °F 94% 29.99 in 10.0 mi NW 5.8 mph - N/A   Overcast
3:55 AM 59.0 °F 59.0 °F 100% 29.99 in 10.0 mi NNW 5.8 mph - N/A   Overcast
4:15 AM 59.0 °F 57.2 °F 94% 29.98 in 10.0 mi NW 3.5 mph - N/A   Overcast
4:35 AM 59.0 °F 57.2 °F 94% 29.98 in 10.0 mi NW 4.6 mph - N/A   Overcast
4:55 AM 59.0 °F 57.2 °F 94% 29.98 in 10.0 mi NW 4.6 mph - N/A   Overcast
5:15 AM 59.0 °F 57.2 °F 94% 29.98 in 10.0 mi NW 3.5 mph - N/A   Overcast
5:35 AM 59.0 °F 57.2 °F 94% 29.98 in 10.0 mi NW 4.6 mph - N/A   Overcast
5:55 AM 59.0 °F 57.2 °F 94% 29.99 in 10.0 mi NW 5.8 mph - N/A   Overcast
6:15 AM 59.0 °F 57.2 °F 94% 29.99 in 10.0 mi NW 6.9 mph - N/A   Overcast
6:35 AM 60.8 °F 59.0 °F 94% 30.00 in 10.0 mi NW 4.6 mph - N/A   Overcast
6:55 AM 60.8 °F 59.0 °F 94% 30.00 in 10.0 mi NW 4.6 mph - N/A   Overcast
7:15 AM 60.8 °F 59.0 °F 94% 30.00 in 10.0 mi WNW 5.8 mph - N/A   Overcast
7:35 AM 62.6 °F 59.0 °F 88% 30.00 in 10.0 mi WNW 6.9 mph - N/A   Overcast
7:55 AM 62.6 °F 59.0 °F 88% 29.99 in 10.0 mi WNW 6.9 mph - N/A   Overcast
8:15 AM 62.6 °F 57.2 °F 82% 29.99 in 10.0 mi WNW 10.4 mph - N/A   Overcast
8:35 AM 62.6 °F 57.2 °F 82% 29.99 in 10.0 mi WNW 10.4 mph - N/A   Overcast
8:55 AM 64.4 °F 57.2 °F 77% 29.99 in 10.0 mi WNW 10.4 mph - N/A   Overcast
9:55 AM 66.2 °F 59.0 °F 78% 29.98 in 10.0 mi West 8.1 mph - N/A   Overcast
10:15 AM 66.2 °F 59.0 °F 78% 29.98 in 10.0 mi West 10.4 mph - N/A   Overcast
10:35 AM 66.2 °F 59.0 °F 78% 29.98 in 10.0 mi West 12.7 mph - N/A   Overcast
10:55 AM 66.2 °F 59.0 °F 78% 29.98 in 10.0 mi WSW 12.7 mph - N/A   Overcast
11:15 AM 68.0 °F 60.8 °F 78% 29.97 in 10.0 mi WSW 11.5 mph 16.1 mph N/A   Overcast
11:35 AM 68.0 °F 60.8 °F 78% 29.97 in 10.0 mi West 11.5 mph 17.3 mph N/A   Overcast
11:55 AM 68.0 °F 60.8 °F 78% 29.96 in 10.0 mi WSW 13.8 mph - N/A   Overcast
12:15 PM 68.0 °F 62.6 °F 83% 29.95 in 10.0 mi WSW 12.7 mph - N/A   Overcast
12:35 PM 68.0 °F 62.6 °F 83% 29.95 in 10.0 mi WSW 13.8 mph - N/A   Overcast
12:55 PM 68.0 °F 62.6 °F 83% 29.94 in 10.0 mi WSW 15.0 mph 18.4 mph N/A   Overcast
1:15 PM 68.0 °F 62.6 °F 83% 29.94 in 10.0 mi SW 15.0 mph - N/A   Overcast
1:35 PM 68.0 °F 62.6 °F 83% 29.93 in 10.0 mi WSW 11.5 mph 19.6 mph N/A   Overcast
1:55 PM 69.8 °F 62.6 °F 78% 29.91 in 10.0 mi WSW 12.7 mph - N/A   Overcast
2:15 PM 71.6 °F 64.4 °F 78% 29.91 in 10.0 mi SW 16.1 mph - N/A   Overcast
2:35 PM 71.6 °F 64.4 °F 78% 29.90 in 10.0 mi WSW 15.0 mph 19.6 mph N/A   Overcast
2:55 PM 71.6 °F 64.4 °F 78% 29.89 in 10.0 mi SW 16.1 mph 20.7 mph N/A   Overcast
3:15 PM 71.6 °F 64.4 °F 78% 29.90 in 10.0 mi WSW 16.1 mph 23.0 mph N/A   Overcast
3:35 PM 73.4 °F 64.4 °F 73% 29.89 in 10.0 mi WSW 16.1 mph 21.9 mph N/A   Scattered Clouds
3:55 PM 73.4 °F 66.2 °F 78% 29.89 in 10.0 mi WSW 15.0 mph 20.7 mph N/A   Clear
4:15 PM 73.4 °F 66.2 °F 78% 29.89 in 10.0 mi WSW 15.0 mph - N/A   Clear
4:35 PM 73.4 °F 66.2 °F 78% 29.88 in 10.0 mi WSW 12.7 mph - N/A   Clear
4:55 PM 73.4 °F 66.2 °F 78% 29.88 in 10.0 mi WSW 16.1 mph - N/A   Clear
5:15 PM 71.6 °F 66.2 °F 83% 29.88 in 10.0 mi WSW 16.1 mph - N/A   Clear
5:35 PM 71.6 °F 66.2 °F 83% 29.88 in 10.0 mi SW 16.1 mph 19.6 mph N/A   Clear
5:55 PM 71.6 °F 66.2 °F 83% 29.88 in 10.0 mi WSW 15.0 mph - N/A   Partly Cloudy
6:15 PM 69.8 °F 66.2 °F 88% 29.88 in 10.0 mi WSW 13.8 mph 19.6 mph N/A   Clear
6:35 PM 68.0 °F 66.2 °F 94% 29.88 in 10.0 mi WSW 13.8 mph 18.4 mph N/A   Clear
6:55 PM 68.0 °F 66.2 °F 94% 29.88 in 10.0 mi SW 11.5 mph - N/A   Scattered Clouds
7:15 PM 68.0 °F 66.2 °F 94% 29.88 in 8.0 mi SW 9.2 mph - N/A   Overcast
7:35 PM 68.0 °F 66.2 °F 94% 29.88 in 10.0 mi WSW 9.2 mph - N/A   Overcast
7:55 PM 68.0 °F 66.2 °F 94% 29.88 in 9.0 mi WSW 10.4 mph - N/A   Overcast
8:15 PM 68.0 °F 66.2 °F 94% 29.88 in 10.0 mi WSW 10.4 mph - N/A   Overcast
8:35 PM 68.0 °F 66.2 °F 94% 29.88 in 8.0 mi WSW 11.5 mph - N/A   Overcast
8:55 PM 68.0 °F 66.2 °F 94% 29.89 in 8.0 mi WSW 10.4 mph - N/A   Overcast
9:15 PM 68.0 °F 66.2 °F 94% 29.88 in 7.0 mi WSW 9.2 mph - N/A   Overcast
9:35 PM 68.0 °F 66.2 °F 94% 29.88 in 7.0 mi WSW 9.2 mph - N/A   Overcast
9:55 PM 68.0 °F 66.2 °F 94% 29.88 in 7.0 mi WSW 9.2 mph - N/A   Overcast
10:15 PM 68.0 °F 66.2 °F 94% 29.88 in 6.0 mi WSW 8.1 mph - N/A   Overcast
10:35 PM 68.0 °F 66.2 °F 94% 29.88 in 6.0 mi WSW 9.2 mph - N/A   Overcast
10:55 PM 68.0 °F 66.2 °F 94% 29.88 in 7.0 mi SW 6.9 mph - N/A   Overcast
11:15 PM 68.0 °F 66.2 °F 94% 29.88 in 7.0 mi WSW 9.2 mph - N/A   Overcast
11:35 PM 68.0 °F 66.2 °F 94% 29.88 in 7.0 mi SW 10.4 mph - N/A   Overcast
11:55 PM 68.0 °F 66.2 °F 94% 29.88 in 7.0 mi SW 11.5 mph - N/A   Overcast